{"data":{"norad_id":65070,"epoch":"2026-05-25T03:52:29.758656Z","epoch_age_seconds":54891,"freshness":"FRESH","line1":"1 65070U 25165Q   26145.16145554  .00005346  00000+0  37419-3 0  9990","line2":"2 65070  97.4482 222.1810 0001993 167.2657 192.8620 15.05657084 46296","mean_motion":15.05657084,"eccentricity":0.0001993,"inclination_deg":97.4482,"raan_deg":222.181,"arg_perigee_deg":167.2657,"mean_anomaly_deg":192.862,"bstar":0.00037419,"rev_number":4629,"period_min":95.639306937967,"perigee_km":548.10874871019,"apogee_km":550.87010060306,"semimajor_km":6927.6264246566,"source":"CELESTRAK","updated_at":"2026-05-25T13:38:20.679502Z"}}